DMSP 5D-2 F13 DEB, 42319

Orbit data source: Space-Track

DMSP 5D-2 F13 DEB, 42319 is space debris in SSO originally from a launch on Fri, 24 Mar 1995 UTC launched from the Air Force Western Test Range (AFWTR). Debris objects in space refer to the collection of defunct objects orbiting the Earth. Examples of debris include non-operational satellites, rocket bodies, and fragments generated from explosions, collisions, or faulty payload assembly.

Loading next visibility...
DMSP 5D-2 F13 DEB details
Identifier
42319, 1995-015JM
Orbit
SSO
Last TLE update21 hours ago
Origin
Flag of USUSAF SMC (US)
ManufacturerUnknown
MissionSpacecraft
Bus & MotorUnknown
MassUnknown
Launch date (UTC)
1995-03-24 (30 years ago)
Launch vehicleUnknown
Launch site
Air Force Western Test Range (AFWTR)
Object type
Payload
Rocket body
Debris
Shape & HBRUnknown
Radar Cross SectionSmall (<0.1 m²)

Expand to show TLE details & history

TLE from 21 hours ago
0 DMSP 5D-2 F13 DEB
1 42319U 95015JM  24361.00829778  .00013767  00000-0  54624-2 0  9993
2 42319  98.8997  22.1636 0027373 101.1038 259.3223 14.28678855501182
Epoch: 2024-12-26T00:11Z
Definitive object data (Epoch: 2024-12-26T00:11:56.928Z)
Latitude0.00002°
Longitude-75.81747°
Altitude802.762 km
Speed7.45 km/s
True Right ascension01h 28m 39s
True Declination0° 00' 00"
Sunlit
Object was in daylight at TLE epoch
Visualization TLE readout
Latitude81.06892°
Longitude-172.58048°
Altitude790.003 km
Speed7.476 km/s
Apparent Right ascension08h 30m 09s
Apparent Declination37° 50' 43"
Sunlit
Object is in daylight
Visualization observer readout
Local Sidereal Time20:10:27
Azimuth356.024° N
Elevation-12.108°
Doppler factor1
Orbital elements
Apogee altitude812.937 km
Perigee altitude773.676 km
Semi-major axis7,171.443 km
Eccentricity0.0027373
Inclination98.8997°
RAAN22.1636°
Arg. of periapsis101.1038°
True anomaly259.01426°
Mean anomaly259.3223°
Eccentric anomaly259.16826°
Mean motion3.57383 °/min
BSTAR0.0054624
Orbital period100.73 mins
Loading maneuver chart data...

DMSP 5D-2 F13 DEB Visibility forecast

Observer location: undefined°, undefined

Span
Click to sort rows by Start time (UTC) header in descending order
Start Az.
Max El. time (UTC)
Max El. Az.
Max El.
End time (UTC)
End Az.
8 mins2024-12-27 01:32:34.084Z161.64° S2024-12-27 01:35:34.084Z144.424° SSE43.93°2024-12-27 01:40:34.084Z347.752° N
7 mins2024-12-27 13:46:34.084Z43.011° NE2024-12-27 13:49:34.084Z87.44° E26.567°2024-12-27 13:53:34.084Z151.848° SSE
7 mins2024-12-27 15:26:34.084Z341.813° N2024-12-27 15:29:34.084Z290.994° WNW27.179°2024-12-27 15:33:34.084Z234.526° WSW
|